This is the latest recevied weather packets stored in our database for station/object SP6PWT-13. If no packets are shown the sender has not sent any weather packets the latest 10 day(s).
| Time | Temp. | Humidity | Pressure | Rain* | Wind** | Luminosity | Snow |
|---|---|---|---|---|---|---|---|
| 1777801679 | 24.44° C | 26% | 1000.3 hPa | 0 mm | - | 630 W/m² | - |
| 1777801378 | 24.44° C | 27% | 1000.2 hPa | 0 mm | - | 634 W/m² | - |
| 1777801078 | 23.89° C | 27% | 1000.3 hPa | 0 mm | - | 641 W/m² | - |
| 1777800778 | 23.89° C | 25% | 1000.3 hPa | 0 mm | - | 637 W/m² | - |
| 1777800477 | 23.89° C | 26% | 1000.4 hPa | 0 mm | - | 631 W/m² | - |
| 1777800176 | 23.89° C | 26% | 1000.4 hPa | 0 mm | - | 625 W/m² | - |
| 1777799875 | 24.44° C | 26% | 1000.6 hPa | 0 mm | - | 626 W/m² | - |
| 1777799574 | 23.89° C | 27% | 1000.5 hPa | 0 mm | - | 621 W/m² | - |
| 1777799274 | 23.89° C | 26% | 1000.5 hPa | 0 mm | - | 614 W/m² | - |
| 1777798974 | 23.89° C | 28% | 1000.5 hPa | 0 mm | - | 609 W/m² | - |
| 1777798673 | 23.89° C | 29% | 1000.5 hPa | 0 mm | - | 600 W/m² | - |
| 1777798372 | 23.89° C | 28% | 1000.7 hPa | 0 mm | - | 594 W/m² | - |
| 1777798072 | 23.89° C | 29% | 1000.6 hPa | 0 mm | - | 588 W/m² | - |
| 1777797772 | 23.33° C | 30% | 1000.6 hPa | 0 mm | - | 579 W/m² | - |
| 1777797471 | 23.33° C | 31% | 1000.7 hPa | 0 mm | - | 572 W/m² | - |
| 1777797169 | 23.33° C | 31% | 1000.8 hPa | 0 mm | - | 566 W/m² | - |
| 1777796869 | 23.89° C | 29% | 1000.8 hPa | 0 mm | - | 556 W/m² | - |
| 1777796569 | 23.33° C | 30% | 1000.9 hPa | 0 mm | - | 549 W/m² | - |
| 1777796268 | 23.33° C | 31% | 1000.7 hPa | 0 mm | - | 540 W/m² | - |
| 1777795968 | 23.33° C | 30% | 1000.7 hPa | 0 mm | - | 530 W/m² | - |
| 1777795668 | 23.33° C | 30% | 1000.7 hPa | 0 mm | - | 60 W/m² | - |
| 1777795367 | 23.33° C | 30% | 1000.7 hPa | 0 mm | - | 57 W/m² | - |
| 1777795067 | 22.22° C | 32% | 1000.7 hPa | 0 mm | - | 56 W/m² | - |
| 1777794766 | 22.22° C | 33% | 1000.6 hPa | 0 mm | - | 55 W/m² | - |
| 1777794466 | 22.22° C | 33% | 1000.7 hPa | 0 mm | - | 53 W/m² | - |
* Rain latest hour (hover to see other rain measurements)
** Current wind speed in m/s (hover to see current wind gust speed)